TimeCST,TemperatureF,Dew PointF,Humidity,Sea Level PressureIn,VisibilityMPH,Wind Direction,Wind SpeedMPH,Gust SpeedMPH,PrecipitationIn,Events,Conditions,WindDirDegrees,DateUTC
12:52 AM,8.1,3.9,83,30.43,10.0,NW,9.2,-,N/A,,Clear,320,2013-11-27 06:52:00
1:52 AM,7.0,3.0,84,30.43,10.0,NW,6.9,-,N/A,,Clear,320,2013-11-27 07:52:00
2:52 AM,7.0,3.0,84,30.43,10.0,NW,8.1,-,N/A,,Clear,320,2013-11-27 08:52:00
3:52 AM,6.1,3.0,87,30.43,10.0,NW,4.6,-,N/A,,Clear,310,2013-11-27 09:52:00
4:52 AM,3.9,-0.0,84,30.43,10.0,NW,6.9,-,N/A,,Clear,310,2013-11-27 10:52:00
5:52 AM,5.0,1.9,87,30.43,10.0,NW,4.6,-,N/A,,Clear,320,2013-11-27 11:52:00
6:52 AM,1.9,-0.9,88,30.41,10.0,WNW,6.9,-,N/A,,Clear,300,2013-11-27 12:52:00
7:52 AM,3.9,1.9,91,30.41,10.0,Calm,Calm,-,N/A,,Clear,0,2013-11-27 13:52:00
8:52 AM,10.0,8.1,92,30.41,10.0,Calm,Calm,-,N/A,,Clear,0,2013-11-27 14:52:00
9:52 AM,15.1,9.0,77,30.38,10.0,SSE,6.9,-,N/A,,Clear,150,2013-11-27 15:52:00
10:52 AM,18.0,9.0,68,30.36,10.0,South,9.2,-,N/A,,Clear,170,2013-11-27 16:52:00
11:52 AM,21.0,9.0,60,30.31,10.0,South,13.8,23.0,N/A,,Clear,170,2013-11-27 17:52:00
12:52 PM,23.0,9.0,55,30.26,10.0,South,17.3,-,N/A,,Clear,190,2013-11-27 18:52:00
1:52 PM,26.1,9.0,49,30.21,10.0,South,18.4,-,N/A,,Partly Cloudy,180,2013-11-27 19:52:00
2:52 PM,26.1,8.1,47,30.17,10.0,South,18.4,-,N/A,,Clear,170,2013-11-27 20:52:00
3:52 PM,26.1,9.0,49,30.14,10.0,South,19.6,-,N/A,,Clear,170,2013-11-27 21:52:00
4:52 PM,24.1,9.0,53,30.08,10.0,SSE,19.6,-,N/A,,Clear,160,2013-11-27 22:52:00
5:52 PM,23.0,10.0,58,30.08,10.0,South,17.3,-,N/A,,Clear,180,2013-11-27 23:52:00
6:52 PM,21.9,10.9,63,30.11,10.0,South,10.4,-,N/A,,Clear,180,2013-11-28 00:52:00
7:52 PM,21.0,10.9,65,30.09,10.0,SSE,10.4,-,N/A,,Clear,160,2013-11-28 01:52:00
8:52 PM,18.0,10.9,74,30.06,10.0,SE,10.4,-,N/A,,Clear,140,2013-11-28 02:52:00
9:52 PM,16.0,10.0,77,30.06,10.0,SE,8.1,-,N/A,,Clear,130,2013-11-28 03:52:00
10:52 PM,15.1,10.0,80,30.05,10.0,SE,8.1,-,N/A,,Clear,130,2013-11-28 04:52:00
11:52 PM,12.9,9.0,84,30.06,10.0,SSE,8.1,-,N/A,,Clear,150,2013-11-28 05:52:00